Location: Newark
(55.7167°N, 12.5667°E)
Time: 18:34:57
(UTC+00:00)

N. Korean satellite - Pass Details

Date: 11 December 2019
Orbit: 454 x 508 km, 97.2° (Epoch: 20 January)

Event Time Altitude Azimuth Distance (km) Brightness Sun altitude
Rises 16:47:49 0° 194° (SSW) 2,604 10.7 -16.8°
Reaches altitude 10° 16:50:09 10° 207° (SSW) 1,720 9.9 -17.1°
Maximum altitude 16:53:20 27° 266° (W) 1,008 9.0 -17.5°
Drops below altitude 10° 16:56:31 10° 325° (NW) 1,716 9.6 -18.0°
Sets 16:58:50 0° 338° (NNW) 2,597 10.4 -18.3°
